User: anonymous   Login
Location: Dampvalley
(47.9094°N, 6.1967°E)
Time: 15:37:53
(UTC+00:00)
Language:

KKS-1 - Orbit

View from above orbital plane
View from above orbital plane
View from above satellite
View from above satellite

Ground track
Ground track

The orbit data is extracted from the following two-line orbital elements,

1 33499U 09002H   21336.89975788  .00000277  00000-0  48307-4 0  9997
2 33499  98.2424 210.3816 0008180 217.3660 142.6980 14.75747147691252
Epoch (UTC): 02 December 2021 21:35:39
Eccentricity: 0.0008180
inclination: 98.2424°
perigee height: 637 km
apogee height: 648 km
right ascension of ascending node: 210.3816°
argument of perigee: 217.3660°
revolutions per day: 14.75747147
mean anomaly at epoch: 142.6980°
orbit number at epoch: 69125

The dashed part of the orbit path shows where the satellite is in the earth's shadow,  

DLR